Disclaimer

Please do not use the information listed here in-flight or in-navigation, as they are not provided to us by the airports but are provided by volunteers, so they might be outdated.

Search


Regions


Airport information page

Radio informations:
Tower (TWR) - 118.95 MHz
Approach (APP) - 118.95 MHz

Airport informations:
Latitude: 44° 56' 29.20" N
Longitude: 017° 17' 51.00" E
Elevation: 400 feet - 122 meters
Operating hours: Remarks
Operating agency: Military-civil joint use airport
Timezone: UTC+1(+2DT) - Last Sunday in March to last Sunday in October
Fuel: Jet fuel avaiable but type is unknown.

Runway information:
17/35 - 8213 x 148 feet< - >2503 x 45 meters

Recent METARs:
LQBK 212030Z 36003KT 1500 SN BR BKN003 OVC017 M00/M01 Q1019 NOSIG
LQBK 212100Z 36003KT 1500 SN BR BKN003 OVC017 M01/M01 Q1019 NOSIG
LQBK 212130Z 36003KT 1500 SN BR BKN003 OVC017 M01/M01 Q1019 NOSIG

Airport on the map: